Simultaneous Nadir Overpasses (SNOs) Predictions

Prediction of SNOs between GOES-16 and TERRA Satellite Orbit:

Table of predicted SNOs for the next 14.0 days since TLE Epoch: 8/1/2025
Index Date Time (GOES-16) GOES-16 Lat,Lon TERRA Lat,Lon Distance(km) Time Diff (sec)
1 08/02/2025 04:28:04 0.01,-104.72 -0.45,-107.07 266.48 80
2 08/04/2025 04:06:10 0.01,-104.72 0.47,-102.43 259.54 80
3 08/04/2025 16:28:17 -0.01,-104.75 0.47,-107.17 274.35 80
4 08/06/2025 16:06:23 -0.01,-104.75 -0.48,-102.53 251.54 80
5 08/07/2025 04:28:39 0.01,-104.71 -0.52,-107.30 293.95 80
6 08/09/2025 04:06:45 0.02,-104.71 0.44,-102.67 231.93 80
7 08/09/2025 16:28:50 -0.01,-104.74 0.54,-107.40 301.85 80
8 08/11/2025 16:06:56 -0.02,-104.74 -0.44,-102.77 224.47 80
9 08/12/2025 04:29:12 0.01,-104.71 -0.55,-107.54 320.79 80
10 08/14/2025 04:07:17 0.02,-104.71 0.38,-102.90 205.59 80
11 08/14/2025 16:29:23 -0.01,-104.74 0.60,-107.63 328.20 80
